Voltar ao catálogo

THORAD AGENA D DEB

AtivoSSO
NORAD 19363·DEBRIS·🇺🇸 United States

Lançado Apr 8, 1970 de Vandenberg Space Force Base

Loading…

Próximas Passagens (próximas 24 horas)

TLE

AtualizadoSource: Space-Track

Época: Sep 13, 2026, 06:03 UTC

1 19363U 70025PY  26256.25258284  .00000183  00000-0  29739-3 0  9998
2 19363 100.0396  34.4498 0005450 165.4936 312.3709 13.62471976708863

Acompanhe THORAD AGENA D DEB em tempo real com AllMySat

Download on the App Store